Temperature
20 20 19 19 18 18 21 21 22 22 22 22 22 22 21 21 21 21 20 21 21 21 20 20 20 20 20 20 20 20 20 20 20 20 19 19 19 19 19 19 19 19 19 19 19 19 19 18 18
20 20 19 19 19 20 21 22 22 22 23 22 22 22 21 20 20 20 20 20 21 21 20 20 20 20 20 20 20 20 20 20 20 20 19 19 19 19 19 19 19 19 19 19 19 19 18 18 18
20 19 19 18 19 20 22 22 22 23 23 23 22 22 21 20 19 20 20 21 21 21 20 20 20 20 20 20 20 20 20 20 20 20 19 19 19 19 19 19 19 19 19 19 18 18 18 18 18
20 19 19 18 20 21 22 22 23 23 22 22 22 21 20 20 20 20 21 21 20 20 20 20 20 20 20 20 20 20 20 20 20 19 19 19 19 19 19 19 19 19 19 19 18 18 18 18 18
20 19 18 18 20 21 22 23 23 23 22 22 21 20 19 19 20 21 21 20 20 20 20 20 20 20 20 20 20 19 19 19 19 19 19 19 19 19 19 19 19 19 19 18 18 18 18 18 18
20 18 18 19 21 22 22 23 23 22 22 21 21 20 18 19 20 20 20 20 20 20 20 20 20 20 20 20 20 19 19 19 19 19 19 19 19 19 19 19 19 19 18 18 18 18 18 18 17
20 17 19 20 21 22 23 23 22 22 21 21 21 19 18 18 19 20 20 20 20 20 20 20 19 19 19 19 19 19 19 19 19 19 19 19 18 18 18 18 18 18 18 18 18 18 18 18 17
21 17 20 19 21 22 23 22 22 21 21 21 21 19 18 18 19 20 20 20 20 20 20 19 19 19 19 19 19 19 19 19 19 19 19 19 18 18 18 18 18 18 18 18 18 18 18 18 17
21 18 18 20 21 22 22 21 21 21 20 20 20 20 20 19 19 19 19 19 19 19 19 19 19 19 19 19 19 19 19 19 19 19 19 19 18 18 18 18 18 18 18 18 18 18 18 17 17
21 18 20 21 22 22 22 21 21 20 19 19 19 19 19 19 19 19 19 19 19 19 19 19 19 19 19 19 19 19 19 19 19 19 18 18 18 18 18 18 18 18 18 18 18 18 18 17 17
20 20 21 22 23 22 21 21 20 20 18 19 18 18 18 18 18 19 19 19 19 19 19 19 19 19 19 19 19 19 19 18 18 18 18 18 18 18 18 17 17 17 17 17 17 17 18 17 17
20 21 22 23 23 22 21 20 19 19 19 19 19 19 18 18 18 18 19 19 19 19 19 19 19 19 19 19 19 19 18 18 18 18 18 18 18 17 17 17 17 17 17 17 17 17 17 17 17
22 22 23 23 22 21 20 19 19 18 19 19 19 18 18 18 18 18 19 19 19 19 19 19 19 19 19 19 19 18 18 18 18 18 18 18 17 17 17 17 17 17 17 17 17 17 17 17 17
23 22 22 22 21 21 19 19 19 18 18 18 18 18 18 18 18 18 18 19 19 19 19 19 19 19 19 19 18 18 18 18 18 18 18 17 17 17 17 17 17 17 17 17 17 16 17 17 16
23 22 21 21 21 20 20 19 18 18 18 18 18 18 18 18 18 18 18 19 19 19 19 19 19 19 18 18 18 18 18 18 18 17 17 17 17 17 17 17 17 17 16 16 16 16 16 16 16
22 21 21 21 21 20 20 19 18 18 18 18 18 17 18 18 18 18 18 19 19 19 19 19 18 18 18 18 18 18 18 17 17 17 17 17 17 17 16 16 16 16 16 16 16 16 16 16 16
21 21 21 21 20 20 20 19 18 18 17 17 17 17 17 17 18 18 18 18 18 18 18 18 18 18 18 18 18 18 17 17 17 17 17 17 16 16 16 16 16 16 16 16 15 15 15 15 15
22 21 21 21 21 20 19 18 17 17 17 17 17 17 17 17 18 18 18 18 18 18 18 18 18 18 18 18 17 17 17 17 17 17 17 16 16 16 16 16 16 15 15 15 15 15 15 15 15
23 22 21 21 20 19 18 18 17 17 17 17 17 17 17 17 18 18 18 18 18 18 18 18 18 18 18 17 17 17 17 17 17 16 16 16 16 16 15 15 15 15 15 15 15 14 14 14 14
22 21 21 20 20 19 18 18 18 17 17 17 17 17 17 17 17 18 18 18 18 18 18 18 18 18 17 17 17 17 17 17 16 16 16 16 16 15 15 15 15 14 14 14 14 14 14 14 14
22 21 21 20 20 19 19 18 18 17 17 17 17 17 18 17 18 18 18 18 18 18 18 18 18 17 17 17 17 17 17 17 16 16 16 16 15 15 15 15 14 14 14 14 14 13 13 13 13
22 22 21 20 19 18 19 18 18 17 17 17 17 17 18 18 18 18 18 18 18 18 18 18 18 17 17 17 17 17 17 16 16 16 15 15 15 15 15 14 14 14 14 13 13 13 13 13 13
22 20 20 19 18 18 18 17 17 17 17 17 17 18 18 18 18 18 18 18 18 18 18 18 18 17 17 17 17 17 16 16 16 15 15 15 15 15 14 14 14 14 13 13 13 13 13 13 13
21 19 18 16 16 18 18 17 18 16 17 17 17 18 18 19 19 18 18 18 18 18 18 18 18 17 17 17 17 16 16 16 16 15 15 15 15 14 14 14 14 13 13 13 13 13 12 12 12
20 19 18 19 17 18 18 17 17 18 18 18 18 18 19 19 19 19 18 18 18 18 18 18 18 17 17 17 16 16 16 16 15 15 15 15 14 14 14 14 13 13 13 13 12 12 12 12 12
20 20 19 20 19 18 18 17 18 19 19 19 20 20 19 19 19 19 19 19 19 19 18 18 18 18 17 17 16 16 16 15 15 15 14 14 14 14 13 13 13 13 13 12 12 12 12 12 12
20 19 18 17 17 17 17 18 19 19 19 18 19 19 19 20 20 20 20 20 20 19 19 19 18 18 17 17 17 16 16 15 15 15 14 14 14 14 13 13 13 13 13 12 12 12 12 12 11
20 17 16 17 18 19 19 19 18 20 19 18 18 19 20 20 20 21 20 20 20 20 19 19 18 18 18 17 17 16 16 15 15 15 14 14 14 14 13 13 13 13 13 12 12 12 12 12 11
19 18 16 15 16 18 19 19 19 19 18 18 18 20 21 21 21 21 21 21 21 20 20 19 19 18 18 17 17 16 16 15 15 15 14 14 14 14 14 13 13 13 13 12 12 12 12 12 11
21 19 17 18 18 16 17 18 20 19 18 19 20 21 22 22 22 22 22 21 21 20 20 19 19 18 18 17 17 16 16 15 15 15 15 14 14 14 14 13 13 13 13 12 12 12 12 12 11
Wind_Speed
7 5 1 1 3 4 2 2 2 1 1 1 3 3 3 2 3 3 2 12 17 16 17 20 20 20 20 19 19 19 18 18 17 17 16 15 14 13 13 12 11 11 10 10 11 11 11 11 11
5 3 1 2 4 2 4 2 3 2 3 3 2 2 2 1 2 4 6 12 17 16 17 18 20 20 20 19 19 18 18 17 16 15 15 14 13 12 11 11 10 10 10 10 10 10 11 11 11
4 1 3 3 2 3 4 3 4 2 3 3 2 1 1 2 4 5 7 15 14 13 15 19 21 20 19 19 18 17 17 16 15 15 14 13 12 11 10 10 9 9 9 9 9 10 10 10 10
3 2 3 3 2 4 4 4 3 3 2 1 2 2 2 3 1 6 14 16 15 11 14 18 21 20 19 18 17 16 16 15 15 14 13 12 11 11 10 9 9 8 8 8 8 9 9 9 8
3 3 4 3 4 5 4 3 3 3 3 2 3 2 2 5 7 14 14 14 14 10 12 17 20 19 19 18 17 16 15 15 14 13 13 12 11 10 9 9 8 8 7 7 7 7 7 7 7
4 4 4 2 5 4 3 2 2 2 3 3 3 3 2 4 9 13 13 12 11 10 10 14 18 19 18 17 16 15 14 14 13 12 11 11 10 10 9 8 8 7 7 7 7 6 6 6 5
4 4 1 3 4 4 2 1 0 2 3 2 2 4 3 4 7 10 12 11 10 9 8 9 12 15 16 16 16 15 14 13 12 11 11 10 9 9 9 8 7 7 7 7 6 6 5 4 3
4 4 1 3 4 4 1 1 1 2 3 2 2 5 4 6 9 10 12 10 8 7 7 7 9 10 12 13 14 14 14 13 12 11 11 10 10 9 9 8 7 6 6 6 6 5 5 4 3
4 3 3 5 5 4 1 1 2 3 4 3 2 2 6 12 13 12 11 9 8 8 6 6 6 8 9 10 12 13 13 12 11 10 10 10 8 8 8 8 8 7 6 6 6 5 5 4 3
4 3 6 5 4 4 2 1 1 2 3 3 4 6 10 12 13 13 13 13 11 10 8 5 6 6 7 8 9 8 9 9 9 7 7 7 6 5 6 6 7 7 7 7 6 5 4 3 2
6 6 5 4 3 2 1 1 2 4 1 3 6 11 12 12 11 11 11 10 10 9 8 6 5 5 6 4 6 6 6 6 6 6 6 5 4 3 3 2 3 3 4 4 3 3 3 3 2
5 6 5 3 1 1 2 3 2 2 2 2 6 9 11 11 10 10 10 9 8 8 7 6 6 5 5 4 4 5 4 4 4 5 5 5 3 2 2 1 1 1 1 2 2 1 2 3 3
5 4 1 0 3 4 5 3 3 1 1 4 8 7 9 9 8 7 6 6 8 8 7 7 6 6 4 4 3 4 4 4 5 5 5 6 4 2 2 1 1 1 2 2 1 1 1 2 2
3 2 1 2 3 2 5 2 2 1 2 5 7 6 7 7 6 6 7 7 7 7 6 6 6 6 5 4 3 4 5 5 5 4 5 6 5 3 2 1 1 1 1 1 1 1 1 0 1
1 1 3 2 2 3 5 3 1 1 3 4 4 4 5 4 4 5 6 7 6 6 5 6 6 6 6 5 4 4 5 6 4 4 5 6 5 5 3 2 2 1 2 3 3 2 1 0 1
2 3 2 3 1 2 4 2 1 2 3 3 3 3 3 2 3 4 5 6 6 5 5 5 6 6 5 4 4 4 5 5 4 5 5 6 6 6 4 3 2 2 3 3 2 1 1 1 1
4 2 3 4 0 2 3 3 1 2 3 2 1 2 3 3 2 3 5 5 6 5 5 6 6 6 6 5 4 4 4 4 4 5 5 5 5 6 5 3 3 4 3 2 1 2 1 1 2
5 4 4 4 1 3 2 2 1 2 3 3 2 2 1 3 3 3 4 5 5 5 5 7 6 6 6 5 4 4 4 3 3 3 4 4 5 6 6 4 4 4 3 3 2 2 2 1 1
5 4 6 4 1 3 2 3 3 3 3 3 3 3 2 2 2 3 4 5 5 5 5 6 7 5 5 4 3 3 3 2 2 2 3 4 5 6 6 4 3 3 3 2 2 2 2 2 2
5 4 4 1 1 2 1 2 3 4 4 4 5 4 4 3 3 4 4 5 5 5 5 6 7 6 5 4 3 3 3 3 2 2 3 3 4 5 5 4 3 3 3 3 2 2 1 1 2
4 6 5 4 2 3 2 4 3 3 2 3 5 5 5 6 5 5 5 5 7 7 7 8 7 6 6 5 4 4 4 4 3 2 2 2 2 4 4 5 4 3 3 2 2 2 2 1 1
4 3 5 5 4 1 1 3 5 4 4 6 7 7 6 6 6 6 7 7 8 8 7 7 7 6 6 6 6 6 4 3 2 1 1 2 3 2 3 4 4 3 2 2 1 2 1 2 0
3 5 6 4 4 2 2 1 7 1 5 8 9 9 8 8 8 8 9 9 8 8 7 7 6 6 5 6 6 6 5 3 2 2 2 2 2 3 2 3 4 3 2 2 2 2 2 2 2
7 7 7 6 5 2 2 2 6 5 7 6 8 10 9 9 9 8 8 8 7 7 7 7 7 5 5 6 6 7 7 6 5 3 2 1 1 2 2 3 3 2 2 2 2 2 2 2 2
5 6 4 5 5 5 2 3 8 7 7 8 10 11 9 9 9 9 9 9 9 9 9 8 8 6 6 6 6 6 7 6 6 4 3 3 1 0 0 1 1 1 2 2 2 2 2 2 2
5 7 6 4 4 5 2 5 7 5 4 5 6 8 8 9 9 10 11 11 11 10 10 9 9 7 7 7 6 5 6 5 4 4 4 4 3 2 2 2 2 2 2 2 2 2 2 2 3
6 4 5 6 2 2 5 7 8 1 2 5 6 7 10 11 11 11 10 10 11 11 11 11 10 8 8 7 7 6 6 5 5 4 4 3 3 2 2 2 2 2 2 2 2 2 3 2 3
5 9 6 5 4 3 6 5 5 6 7 7 8 10 11 11 11 11 10 11 11 10 9 9 9 9 8 8 7 6 6 6 5 4 4 4 4 3 3 3 3 3 2 2 2 2 3 3 4
5 5 5 5 5 5 3 7 7 9 10 11 13 12 12 12 13 12 11 10 10 9 9 10 9 8 8 8 7 6 6 5 5 5 5 4 4 4 4 4 3 3 3 3 3 4 4 4 5
6 8 8 5 4 5 4 8 6 8 8 10 12 12 11 12 11 11 10 10 9 10 10 11 10 10 10 9 8 7 6 6 5 5 5 5 5 4 4 4 4 4 4 4 4 5 5 5 6
Wind_Direction
159 151 139 78 54 42 306 252 188 184 167 158 138 138 155 187 223 257 114 141 138 144 153 154 151 147 142 137 134 133 132 131 131 132 133 134 135 136 136 135 132 129 124 120 118 117 115 113 112
143 152 91 58 74 32 291 230 180 195 174 146 131 124 126 146 100 114 131 143 141 145 150 154 153 150 146 142 140 139 138 137 137 137 138 139 139 139 138 136 133 131 128 125 123 121 119 117 116
153 165 87 72 102 192 258 236 182 172 165 155 132 81 90 104 128 139 142 141 136 141 147 156 155 152 149 147 145 144 143 143 143 144 144 145 145 144 141 140 139 136 132 129 128 126 124 122 120
131 58 56 64 265 239 237 247 198 168 131 116 113 68 61 27 111 132 135 141 138 138 147 158 156 154 153 152 151 149 149 150 150 151 152 153 153 151 150 149 146 142 139 137 135 133 130 128 126
68 77 54 7 279 269 267 249 195 170 157 137 126 111 50 17 89 120 134 141 140 136 148 159 158 157 157 157 156 156 157 158 158 159 160 161 160 160 160 160 157 154 151 145 142 140 139 135 131
57 64 66 311 288 286 286 272 169 144 118 93 110 113 56 80 110 130 137 138 138 139 145 157 162 161 162 161 161 162 164 165 165 166 167 168 168 169 169 171 171 170 166 160 156 150 150 146 139
106 97 181 253 279 289 277 1 70 99 104 98 116 115 107 117 124 130 131 132 135 137 138 151 162 165 165 165 165 166 169 171 171 172 174 176 177 179 181 184 187 184 181 178 174 168 166 164 155
139 106 295 263 249 263 259 33 10 75 102 81 94 138 157 160 140 128 127 129 137 140 142 148 157 159 163 167 169 170 174 175 176 178 181 184 187 191 193 194 197 197 199 199 196 195 192 188 181
120 74 260 244 226 246 188 82 27 59 97 86 76 125 149 147 139 134 134 134 148 158 154 153 153 152 156 163 173 175 178 180 180 185 188 190 194 199 205 207 208 209 214 219 220 218 214 213 212
124 175 237 232 214 216 197 131 99 94 93 99 94 107 132 144 147 151 157 160 165 170 170 161 154 151 153 168 170 171 173 175 176 179 184 185 190 202 212 220 223 223 223 228 232 233 229 227 241
176 208 244 261 245 208 175 103 64 131 162 199 160 150 149 152 155 164 169 167 167 167 171 166 157 156 158 158 154 157 155 158 167 173 173 170 179 199 208 215 242 239 226 228 238 239 245 234 228
195 246 238 283 338 97 142 132 98 104 195 136 146 148 149 155 167 171 173 171 161 164 173 164 159 159 164 154 159 159 154 159 167 173 173 167 168 178 188 200 223 228 203 199 208 243 254 256 247
217 262 272 348 74 85 88 92 114 94 126 111 126 129 141 151 158 163 165 158 161 171 173 168 162 164 155 149 163 159 159 166 170 170 183 180 170 176 177 178 183 176 168 172 161 171 229 264 269
226 206 2 43 79 85 107 69 68 75 89 110 128 141 148 153 154 153 166 167 167 163 165 163 162 156 152 157 157 152 156 159 164 172 178 173 168 166 153 134 116 122 147 140 120 129 134 53 305
358 66 18 25 96 140 113 44 0 135 95 103 115 135 134 130 145 157 169 166 163 161 159 161 155 145 153 159 164 157 156 157 160 160 161 158 156 147 136 123 105 101 103 99 91 79 72 356 313
45 51 352 297 106 158 134 238 229 127 113 120 126 137 141 145 155 154 159 158 155 149 148 152 146 135 136 140 138 138 141 143 145 148 150 150 149 141 133 120 107 100 90 93 93 71 59 1 333
28 342 282 292 246 125 150 214 222 148 137 146 150 160 157 172 164 153 156 155 148 146 143 131 123 131 133 128 117 119 121 122 134 136 136 142 142 137 128 115 106 101 87 78 76 72 78 15 332
263 269 265 265 278 108 141 217 211 183 173 177 199 198 190 191 180 166 146 136 130 132 142 129 129 135 129 113 100 92 89 89 108 124 131 136 136 134 123 111 105 104 89 69 65 72 59 38 327
232 233 257 263 161 125 174 215 222 212 196 199 212 216 213 190 157 149 149 151 141 132 136 136 140 145 136 125 125 121 118 107 91 105 122 128 134 136 130 125 115 111 103 96 90 90 60 25 1
221 232 241 256 115 128 172 259 236 215 214 214 216 213 190 165 143 141 161 170 150 144 155 152 156 155 150 140 130 127 122 110 97 77 88 108 134 144 145 140 134 126 113 98 88 95 93 23 28
219 199 209 191 107 61 56 326 261 241 215 217 219 212 199 188 173 168 170 174 152 163 171 168 160 150 142 130 115 96 77 65 63 58 55 45 116 151 152 152 144 138 132 138 132 127 131 121 16
232 220 161 140 125 313 73 285 274 232 239 225 218 210 209 195 181 176 173 180 177 178 167 159 150 142 139 137 137 136 136 142 159 137 95 51 71 115 151 153 153 150 146 152 163 139 137 138 145
163 78 89 97 109 51 19 222 285 217 233 231 219 214 209 197 189 184 182 186 184 176 164 155 148 144 144 143 142 134 131 138 126 107 95 69 46 63 112 146 155 156 158 169 170 149 146 154 171
115 74 58 52 65 347 257 203 279 231 220 218 211 210 205 196 190 185 181 177 178 168 159 155 153 154 150 145 143 146 148 148 140 137 130 97 52 35 67 123 142 158 168 182 187 178 173 181 186
89 89 27 355 1 265 251 232 255 250 222 203 201 202 196 189 185 180 178 181 182 175 171 166 163 165 160 154 157 162 161 159 162 166 166 160 157 179 182 127 146 168 197 201 189 187 200 197 202
175 142 159 213 240 283 303 247 257 265 232 198 190 184 180 184 188 189 189 187 185 180 175 172 172 174 171 169 172 171 166 164 170 174 174 182 191 203 201 187 200 214 219 216 201 212 226 213 221
139 154 151 131 133 302 286 283 299 273 186 185 182 179 189 193 195 197 192 188 184 181 182 180 178 180 181 180 174 176 177 177 181 180 179 188 201 207 203 206 214 231 236 229 210 226 239 231 236
136 140 106 122 151 265 293 282 255 235 211 200 196 199 203 197 198 197 193 191 190 186 182 177 180 186 185 182 184 188 187 188 183 176 188 200 209 208 208 223 232 244 243 231 219 234 239 236 246
128 115 113 119 153 166 258 276 230 212 200 195 203 204 203 200 200 199 196 191 185 177 175 180 184 183 184 188 190 187 187 187 184 193 206 205 209 210 217 227 233 242 246 238 229 241 242 243 253
166 167 150 156 204 180 188 266 271 218 206 196 202 206 204 203 202 198 191 181 179 182 183 187 187 189 193 189 186 190 188 185 193 209 217 211 217 221 223 227 234 244 246 242 239 252 251 246 255
Height
1509 1510 1511 1513 1514 1520 1519 1512 1506 1506 1505 1504 1503 1504 1507 1509 1512 1515 1509 1510 1515 1519 1524 1528 1532 1535 1537 1539 1541 1543 1544 1546 1547 1549 1550 1551 1552 1553 1554 1555 1555 1556 1557 1557 1558 1558 1558 1559 1559
1510 1510 1513 1513 1518 1528 1520 1508 1506 1504 1503 1502 1503 1503 1505 1507 1508 1507 1507 1511 1516 1520 1525 1529 1533 1536 1538 1540 1542 1544 1546 1547 1549 1550 1551 1553 1554 1555 1555 1556 1557 1558 1558 1559 1559 1560 1560 1561 1561
1510 1511 1513 1514 1520 1524 1515 1504 1503 1501 1501 1501 1503 1504 1505 1506 1507 1507 1509 1513 1518 1522 1526 1530 1534 1537 1539 1542 1544 1545 1547 1548 1550 1551 1553 1554 1555 1556 1557 1558 1558 1559 1560 1560 1561 1561 1562 1563 1563
1511 1513 1514 1518 1519 1512 1506 1501 1500 1500 1501 1501 1503 1505 1506 1507 1507 1507 1510 1515 1519 1523 1527 1531 1534 1538 1540 1543 1545 1547 1548 1550 1551 1552 1554 1555 1556 1557 1558 1559 1560 1560 1561 1562 1562 1563 1564 1564 1565
1511 1512 1517 1522 1517 1508 1501 1499 1499 1499 1500 1501 1503 1505 1507 1508 1508 1509 1512 1516 1521 1525 1529 1533 1536 1539 1541 1544 1546 1548 1549 1551 1552 1553 1555 1556 1557 1558 1559 1560 1561 1562 1562 1563 1564 1565 1565 1566 1567
1512 1513 1524 1526 1516 1506 1501 1499 1498 1498 1500 1502 1503 1506 1508 1509 1509 1511 1514 1518 1522 1526 1530 1534 1537 1540 1542 1544 1546 1549 1550 1552 1553 1554 1555 1557 1558 1558 1559 1561 1562 1563 1563 1564 1565 1566 1566 1567 1568
1514 1517 1522 1520 1516 1508 1501 1499 1499 1500 1501 1503 1504 1506 1508 1509 1511 1513 1516 1520 1523 1527 1530 1534 1537 1540 1543 1545 1547 1549 1551 1553 1554 1555 1556 1557 1558 1559 1560 1561 1562 1563 1564 1565 1566 1567 1567 1568 1569
1513 1517 1519 1519 1514 1508 1500 1500 1500 1500 1502 1504 1504 1505 1507 1509 1511 1514 1517 1520 1524 1528 1531 1534 1537 1540 1543 1545 1547 1549 1551 1553 1554 1555 1557 1558 1559 1560 1560 1561 1562 1564 1565 1566 1566 1567 1568 1569 1569
1512 1520 1524 1516 1511 1504 1500 1500 1501 1502 1502 1503 1504 1504 1505 1508 1511 1514 1517 1520 1524 1528 1531 1534 1537 1540 1543 1545 1547 1549 1551 1553 1554 1555 1557 1558 1559 1559 1561 1561 1562 1563 1564 1566 1566 1567 1568 1569 1569
1512 1520 1514 1505 1502 1500 1500 1501 1502 1503 1503 1504 1504 1504 1505 1507 1510 1513 1515 1518 1522 1526 1530 1534 1537 1540 1543 1545 1547 1549 1551 1553 1554 1555 1556 1557 1559 1560 1560 1561 1562 1563 1564 1565 1566 1567 1567 1568 1569
1509 1511 1503 1500 1499 1499 1500 1501 1502 1503 1505 1504 1503 1504 1505 1507 1510 1513 1515 1518 1521 1526 1530 1533 1537 1540 1543 1545 1547 1549 1551 1553 1554 1555 1556 1557 1558 1559 1560 1561 1561 1562 1563 1564 1565 1566 1567 1567 1568
1506 1503 1501 1499 1498 1499 1500 1501 1502 1503 1504 1503 1503 1504 1506 1508 1510 1512 1515 1519 1522 1525 1529 1533 1536 1540 1543 1545 1547 1549 1551 1552 1553 1554 1555 1557 1558 1558 1559 1560 1560 1561 1562 1563 1563 1565 1565 1566 1567
1504 1501 1500 1499 1499 1500 1501 1502 1502 1503 1503 1503 1504 1506 1507 1508 1511 1514 1517 1519 1522 1526 1529 1533 1536 1540 1542 1544 1547 1548 1550 1552 1553 1554 1555 1556 1557 1557 1558 1559 1559 1560 1561 1561 1562 1563 1563 1564 1565
1500 1500 1500 1500 1500 1501 1502 1504 1504 1504 1504 1504 1505 1507 1508 1509 1511 1513 1516 1519 1521 1525 1528 1532 1535 1539 1542 1544 1547 1548 1550 1551 1552 1553 1554 1555 1556 1556 1557 1557 1558 1559 1559 1560 1560 1561 1562 1562 1563
1500 1502 1502 1501 1501 1502 1503 1506 1505 1505 1504 1505 1506 1507 1509 1510 1511 1513 1516 1519 1522 1525 1529 1532 1534 1538 1541 1544 1546 1548 1549 1550 1552 1553 1554 1555 1555 1556 1556 1556 1557 1557 1558 1558 1559 1559 1560 1560 1561
1501 1505 1509 1503 1501 1502 1507 1511 1505 1505 1505 1505 1506 1507 1508 1510 1512 1514 1516 1519 1522 1525 1529 1532 1534 1537 1540 1543 1545 1547 1548 1550 1551 1552 1553 1554 1554 1555 1555 1556 1556 1557 1557 1557 1557 1558 1558 1558 1558
1508 1513 1511 1505 1501 1501 1505 1509 1505 1505 1506 1506 1507 1507 1508 1509 1511 1513 1516 1519 1522 1526 1529 1531 1534 1537 1540 1542 1544 1546 1547 1549 1550 1552 1553 1553 1554 1554 1555 1556 1556 1556 1556 1556 1556 1556 1556 1556 1556
1513 1512 1510 1508 1502 1502 1506 1507 1505 1505 1506 1506 1507 1507 1508 1509 1511 1513 1516 1518 1521 1525 1529 1531 1534 1536 1539 1541 1543 1545 1547 1548 1550 1551 1552 1552 1553 1554 1554 1555 1555 1555 1555 1555 1555 1555 1555 1555 1554
1501 1506 1509 1505 1501 1503 1506 1507 1505 1504 1505 1506 1507 1507 1508 1509 1511 1513 1516 1519 1522 1525 1528 1531 1534 1536 1539 1541 1542 1544 1546 1547 1549 1550 1551 1552 1553 1553 1554 1554 1554 1554 1554 1554 1554 1554 1553 1553 1553
1500 1506 1506 1503 1501 1503 1507 1507 1504 1503 1504 1504 1505 1507 1507 1508 1510 1513 1516 1518 1521 1524 1528 1530 1534 1536 1539 1540 1542 1544 1545 1546 1548 1549 1550 1551 1552 1552 1553 1553 1553 1553 1553 1553 1553 1553 1552 1552 1551
1498 1501 1502 1505 1503 1505 1508 1510 1505 1503 1503 1504 1504 1505 1507 1508 1509 1512 1515 1517 1521 1525 1528 1530 1533 1535 1537 1540 1541 1543 1544 1546 1547 1548 1549 1550 1551 1551 1552 1552 1552 1552 1552 1552 1551 1551 1551 1550 1550
1499 1493 1496 1501 1510 1516 1513 1523 1507 1503 1502 1502 1502 1503 1504 1507 1509 1511 1514 1517 1521 1525 1528 1530 1533 1535 1537 1539 1540 1542 1543 1544 1546 1547 1548 1549 1549 1550 1550 1550 1551 1551 1551 1550 1550 1549 1549 1549 1549
1494 1493 1498 1504 1511 1518 1516 1522 1513 1504 1503 1500 1499 1500 1502 1505 1508 1510 1513 1517 1521 1524 1527 1530 1532 1535 1537 1538 1540 1541 1542 1544 1544 1545 1546 1547 1548 1548 1548 1549 1549 1549 1549 1549 1548 1548 1547 1547 1547
1492 1499 1505 1513 1518 1526 1518 1522 1516 1505 1498 1495 1495 1497 1500 1503 1506 1510 1513 1517 1520 1524 1527 1529 1532 1534 1536 1537 1539 1540 1541 1542 1543 1544 1545 1545 1546 1546 1546 1547 1547 1547 1547 1547 1546 1546 1545 1545 1544
1494 1509 1526 1527 1534 1530 1517 1519 1512 1493 1489 1489 1491 1494 1498 1501 1505 1508 1512 1515 1519 1522 1525 1528 1531 1533 1535 1537 1538 1539 1540 1541 1542 1542 1543 1544 1544 1544 1545 1545 1545 1545 1545 1544 1544 1544 1543 1543 1542
1496 1503 1524 1532 1535 1528 1517 1518 1501 1486 1485 1486 1489 1493 1497 1500 1504 1507 1510 1514 1517 1521 1524 1527 1530 1532 1534 1536 1537 1538 1539 1540 1540 1541 1541 1542 1542 1543 1543 1543 1543 1542 1542 1542 1542 1541 1541 1540 1540
1497 1502 1504 1521 1526 1530 1521 1509 1493 1484 1484 1486 1488 1492 1494 1498 1501 1505 1509 1512 1516 1519 1522 1526 1528 1531 1533 1534 1536 1537 1538 1538 1539 1539 1539 1540 1540 1540 1541 1541 1540 1540 1540 1540 1539 1539 1538 1538 1537
1488 1498 1511 1521 1530 1531 1520 1512 1504 1488 1486 1485 1487 1488 1491 1495 1499 1502 1506 1510 1513 1517 1521 1524 1527 1529 1531 1533 1534 1536 1536 1537 1537 1537 1537 1538 1538 1538 1538 1538 1538 1538 1538 1537 1537 1536 1536 1535 1534
1493 1499 1507 1518 1520 1529 1528 1514 1484 1481 1480 1481 1482 1484 1487 1491 1495 1499 1503 1507 1511 1515 1518 1521 1524 1527 1529 1531 1533 1534 1534 1535 1535 1535 1536 1536 1536 1536 1536 1536 1536 1536 1536 1535 1534 1534 1533 1532 1531
1483 1490 1501 1511 1515 1521 1524 1511 1474 1474 1475 1476 1479 1481 1484 1488 1492 1496 1500 1504 1508 1511 1515 1518 1521 1524 1526 1528 1530 1531 1532 1533 1533 1534 1534 1535 1535 1535 1535 1534 1534 1534 1533 1533 1532 1531 1530 1529 1528